Flag for Micronesia Weather past 2 weeks in Palikir, Ponape, Micronesia

Now
87 °F

Warm.


Feels Like: 105 °F
Forecast: 75 / 88 °F
Wind: N/A

Location: Pohnpei

Current Time: Aug 31, 2014 at 3:34:30 PM

Latest Report: Aug 31, 2014 at 2:54 PM


Visibility: N/A

Pressure: 29.75 "Hg

Humidity: 83%

Dew point: 82 °F

Location of PalikirLocation

Historic Weather in Palikir — Graph

°F

Palikir temperature yesterday

Maximum temperature yesterday: 90 °F (at 12:52 PM)
Minimum temperature yesterday: 76 °F (at 2:53 AM)
Average temperature yesterday: 82 °F

Past Weeks' High & Low Weather Summary

 TemperatureHumidityPressure
High91 °F (Aug 19, 10:54 AM)99% (Aug 16, 11:55 PM)29.94 "Hg (Aug 16, 11:55 PM)
Low73 °F (Aug 25, 5:53 AM)61% (Aug 29, 11:52 AM)29.73 "Hg (Aug 30, 3:53 PM)
Average81 °F86%29.84 "Hg
* Reported Aug 16 1:50 PM — Aug 31 1:53 PM, Palikir, Weather by CustomWeather, © 2014

Note: Actual official high and low records may vary slightly from our data, if they occured in-between our weather recording intervals... More about our weather records

Advertising

Palikir weather history for previous 24 hours

 ConditionsComfort  
Time TempWeatherWind HumidityBarometerVisibility
1:53 PM
Aug 31
87 °FMostly cloudy.5 mph80%29.76 "Hg15 mi
12:52 PM90 °FBroken clouds.8 mph68%29.78 "Hg15 mi
11:53 AM90 °FBroken clouds.6 mph67%29.80 "Hg15 mi
10:53 AM84 °FSprinkles. Broken clouds.5 mph80%29.82 "Hg13 mi
9:51 AM88 °FBroken clouds.6 mph81%29.82 "Hg15 mi
8:50 AM89 °FPassing clouds.3 mph81%29.81 "Hg15 mi
7:55 AM82 °FPassing clouds.2 mph88%29.80 "Hg15 mi
6:54 AM75 °FScattered clouds.5 mph96%29.78 "Hg15 mi
5:55 AM75 °FPassing clouds.2 mph96%29.78 "Hg15 mi
3:55 AM76 °FPassing clouds.2 mph96%29.77 "Hg15 mi
2:55 AM76 °FPassing clouds.2 mph96%29.78 "Hg15 mi
1:55 AM76 °FPassing clouds.2 mph97%29.79 "Hg15 mi
12:55 AM76 °FPassing clouds.2 mph96%29.80 "Hg15 mi
11:52 PM
Aug 30
77 °FPassing clouds.3 mph94%29.82 "Hg15 mi
10:52 PM78 °FPassing clouds.No wind94%29.83 "Hg15 mi
9:50 PM79 °FPassing clouds.3 mph92%29.82 "Hg15 mi
8:53 PM80 °FPassing clouds.3 mph90%29.80 "Hg15 mi
7:52 PM81 °FMostly cloudy.No wind89%29.78 "Hg15 mi
6:54 PM83 °FPassing clouds.No wind81%29.77 "Hg15 mi
5:52 PM85 °FMostly cloudy.3 mph74%29.75 "Hg15 mi
4:53 PM86 °FMostly cloudy.3 mph73%29.73 "Hg15 mi
3:53 PM86 °FMore clouds than sun.5 mph73%29.73 "Hg15 mi
Weather by CustomWeather, © 2014

See weather overviewHow to use our weather pages